{"data":{"norad_id":69541,"intl_designator":"2026-134D","name":"2026-134D","alt_names":[],"object_type":"PAYLOAD","status":"ACTIVE","operator":null,"country":"PRC","launch_date":"2026-06-15","launch_site_code":"JSC","launch_vehicle":null,"mission":null,"orbit_class":"UNKNOWN","rcs_meters":null,"size_class":null,"mass_kg":null,"dimensions":null,"purposes":[],"wikipedia_slug":null,"has_3d_model":false,"image_url":null,"decayed_at":null,"tle_current":{"epoch":"2026-09-19T12:05:24.374112Z","epoch_age_seconds":119480,"freshness":"FRESH","line1":"1 69541U 26134D   26262.50375433  .00002398  00000+0  15434-3 0  9990","line2":"2 69541  97.6945 333.0270 0019137 312.8655  47.0965 15.09227020 14538","mean_motion":15.0922702,"eccentricity":0.0019137,"inclination_deg":97.6945,"raan_deg":333.027,"arg_perigee_deg":312.8655,"mean_anomaly_deg":47.0965,"bstar":0.00015434,"rev_number":1453,"period_min":95.413081061854,"perigee_km":525.32419211325,"apogee_km":551.79716080012,"semimajor_km":6916.6976764567,"source":"CELESTRAK","updated_at":"2026-09-20T09:00:24.949205Z"}}}